User: anonymous   Login
Location: TAAA CAC
(31.8680°N, 109.5150°W)
Time: 23:00:55
(UTC-07:00)
Language:

Hubble Space Telescope - Orbit

View from above orbital plane
View from above orbital plane
View from above satellite
View from above satellite

Ground track
Ground track

The orbit data is extracted from the following two-line orbital elements,

1 20580U 90037B   24112.09457118  .00010222  00000-0  49580-3 0  9995
2 20580  28.4700   7.4112 0002567 126.5641 233.5188 15.16849344668610
Epoch (UTC): 21 April 2024 02:16:10
Eccentricity: 0.0002567
inclination: 28.4700°
perigee height: 513 km
apogee height: 517 km
right ascension of ascending node: 7.4112°
argument of perigee: 126.5641°
revolutions per day: 15.16849344
mean anomaly at epoch: 233.5188°
orbit number at epoch: 66861

The dashed part of the orbit path shows where the satellite is in the earth's shadow,  

DLR